Location: Campillo
(40.8621°N, 4.2488°W)
Time: 22:52:14
(UTC+00:00)

deb r/b Ablestar - Visible Passes

Search period start: 01 December 2021 00:00
Search period end: 11 December 2021 00:00
Orbit: 855 x 972 km, 66.7° (Epoch: 01 December)

Date Brightness Start Highest point End Pass type
(mag) Time Alt. Az. Time Alt. Az. Time Alt. Az.
01 Dec ? 02:48:55 10° ENE 02:48:55 10° ENE 02:49:03 10° ENE visible
01 Dec ? 04:32:19 58° NNE 04:32:19 58° NNE 04:37:20 10° NNE visible
01 Dec ? 06:15:42 16° WNW 06:18:03 19° NW 06:22:31 10° N visible
02 Dec ? 02:56:17 11° ENE 02:56:17 11° ENE 02:56:38 10° ENE visible
02 Dec ? 04:39:39 42° N 04:39:39 42° N 04:43:53 10° NNE visible
02 Dec ? 06:23:02 13° WNW 06:25:02 15° NW 06:28:35 10° N visible
03 Dec ? 03:03:27 11° NE 03:03:27 11° NE 03:03:45 10° NE visible
03 Dec ? 04:46:49 31° N 04:46:49 31° N 04:50:21 10° NNE visible
03 Dec ? 06:30:10 10° NW 06:32:07 12° NNW 06:34:21 10° N visible
04 Dec ? 03:10:28 11° NE 03:10:28 11° NE 03:10:40 10° NE visible
04 Dec ? 04:53:49 24° N 04:53:49 24° N 04:56:45 10° NNE visible
05 Dec ? 03:17:21 10° NE 03:17:21 10° NE 03:17:26 10° NE visible
05 Dec ? 05:00:42 19° N 05:00:42 19° N 05:03:06 10° N visible
06 Dec ? 05:07:30 16° N 05:07:30 16° N 05:09:21 10° N visible
07 Dec ? 05:14:13 13° N 05:14:13 13° N 05:15:28 10° N visible
08 Dec ? 05:20:54 11° NNW 05:20:54 11° NNW 05:21:19 10° N visible
